Ana Sayfa
METAR-TAF:

METAR-TAF

Havaalanları :

Camp Mabry

Austin, Teksas, Amerika Birleşik Devletleri

Enlem: 30-19N, Boylam: 097-46W, yükseklik: 200 m

Güncel hava durumu gözlemi

Rapor saat 21:51 UTC de 21 dakika önce yapıldı.
Sakin rüzgar
Sıcaklık 18°C
Nem 34%
Basınç 1020 hPa
Görüş mesafesi: 16.1 km
Açık gökyüzü

METAR: KATT 162151Z AUTO 00000KT 10SM CLR 18/02 A3011 RMK AO2 SLP197 T01830017

Saat: 16:12 (22:12 UTC)


TAF: eksik

4.000'den fazla havaalanı için hava durumu gözlemleri ve tahminleri (METAR ve TAF raporları).

Kullanılabilir istasyonlar harita üzerinde sarı ve kırmızı noktalarla gösterilir.

İstasyonun adını görmek için fareyi noktanın üzerinde gezdirin.

Sonrasında hava gözlem ve tahminlerini görmek için tıklayın.

Haritayı değiştirmek için: yaklaştırmak için siyah artı işaretli yeşil düğmeye ve uzaklaştırmak için de eksi işaretli düğmeye hızla tıklayın; bitişik haritalar için yeşil okları kullanın.


METAR-TAF: